Simultaneous Nadir Overpasses (SNOs) Predictions

Prediction of SNOs between AQUA and NPP Satellite Orbit:

Table of predicted SNOs for the next 14.0 days since TLE Epoch: 11/16/2024
Index Date (AQUA) Time (AQUA) Lat,Lon (AQUA) SZA (AQUA ) Date (NPP) Time (NPP) Lat,Lon (NPP) SZA (NPP ) Distance(km) Time Diff (sec)
1 11/17/2024 12:07:17 81.30, -73.58 105.71 11/17/2024 12:06:51 81.30, -73.70 105.74 2.24 26
2 11/17/2024 12:56:38 -81.30, 93.94 74.27 11/17/2024 12:57:35 -81.30, 93.89 74.29 0.98 57
3 11/19/2024 23:19:12 81.30, 118.49 106.29 11/19/2024 23:19:13 81.30, 118.61 106.27 2.16 1
4 11/22/2024 09:41:46 -81.30, 142.92 73.18 11/22/2024 09:40:52 -81.30, 142.75 73.12 3.09 54
5 11/22/2024 10:31:05 81.31, -49.35 106.83 11/22/2024 10:31:35 81.30, -49.16 106.78 3.15 30
6 11/24/2024 20:53:38 -81.29, -25.17 72.64 11/24/2024 20:53:14 -81.30, -25.09 72.64 1.40 24
7 11/24/2024 21:42:57 81.30, 142.54 107.36 11/24/2024 21:43:58 81.30, 142.58 107.32 0.84 61
8 11/27/2024 07:16:34 80.65, -10.84 109.10 11/27/2024 07:15:27 80.93, -14.42 109.77 70.87 67
9 11/27/2024 08:05:27 -81.29, 166.83 72.16 11/27/2024 08:05:35 -81.30, 166.98 72.18 2.69 8
10 11/29/2024 18:27:54 81.30,-168.60 108.26 11/29/2024 18:27:13 81.30,-168.76 108.31 2.74 41



Historial Predications of SNOs between AQUA and NPP
